Location: Dumbr?vi?a
(45.8833°N, 22.7000°E)
Time: 14:19:40
(UTC+00:00)

HJ-1C - Pass Details

Date: 03 March 2021
Orbit: 428 x 440 km, 97.1° (Epoch: 16 April)

Event Time Altitude Azimuth Distance (km) Brightness Sun altitude
Rises 16:58:22 0° 151° (SSE) 2,416 6.8 -7.7°
Reaches altitude 10° 17:00:26 10° 144° (SE) 1,550 5.8 -8.1°
Maximum altitude 17:03:34 40° 73° (ENE) 657 3.8 -8.6°
Drops below altitude 10° 17:06:43 10° 2° (N) 1,556 6.1 -9.2°
Sets 17:08:48 0° 355° (N) 2,427 7.2 -9.5°
